Location: Decatur(IL)
(39.8400°N, 88.9550°W)
Time: 02:44:15
(UTC-05:00)

Cosmos 1953 - Visible Passes

Search period start: 05 September 2015 00:00
Search period end: 15 September 2015 00:00
Orbit: 545 x 563 km, 82.5° (Epoch: 04 September)

Date Brightness Start Highest point End Pass type
(mag) Time Alt. Az. Time Alt. Az. Time Alt. Az.
11 Sep 4.9 21:19:13 12° NNE 21:19:13 12° NNE 21:19:32 10° NNE visible
12 Sep 4.6 21:15:52 14° NNE 21:15:52 14° NNE 21:16:35 10° NNE visible
13 Sep 4.4 21:12:26 18° NNE 21:12:26 18° NNE 21:13:37 10° NNE visible
14 Sep 4.0 21:08:55 23° NNE 21:08:55 23° NNE 21:10:38 10° NNE visible
